Flag for Spain Weather past 2 weeks in Torrevieja, Spain

Now
81 °F

Passing clouds.


Feels Like: 81 °F
Forecast: 65 / 86 °F
Wind: 3 mph from East

Location: Murcia / San Javier

Current Time: Sep 19, 2014 at 12:23:26 PM

Latest Report: Sep 19, 2014 at 12:00 PM


Visibility: N/A

Pressure: 29.92 "Hg

Humidity: 45%

Dew point: 57 °F

Location of TorreviejaLocation

Historic Weather in Torrevieja — Graph

°F

Torrevieja temperature yesterday

Maximum temperature yesterday: 84 °F (at 5:00 PM)
Minimum temperature yesterday: 70 °F (at 7:00 AM)
Average temperature yesterday: 79 °F

Past Weeks' High & Low Weather Summary

 TemperatureHumidityPressure
High93 °F (Sep 11, 4:00 PM)94% (Sep 17, 7:00 AM)30.01 "Hg (Sep 17, 7:00 AM)
Low64 °F (Sep 16, 8:00 AM)24% (Sep 12, 1:00 PM)29.71 "Hg (Sep 17, 5:00 PM)
Average81 °F63%29.88 "Hg
* Reported Sep 4 11:00 AM — Sep 19 11:00 AM, Torrevieja, Weather by CustomWeather, © 2014

Note: Actual official high and low records may vary slightly from our data, if they occured in-between our weather recording intervals... More about our weather records

Advertising

Torrevieja weather history for previous 24 hours

 ConditionsComfort  
Time TempWeatherWind HumidityBarometerVisibility
11:00 AM
Sep 19
82 °FSunny.2 mph89%29.92 "Hg10 mi
10:00 AM77 °FSunny.No wind51%29.92 "Hg10 mi
9:00 AM70 °FSunny.1 mph69%29.89 "Hg10 mi
8:00 AM66 °FClear.1 mph73%29.86 "Hg10 mi
7:00 AM68 °FClear.1 mph78%29.86 "Hg10 mi
11:00 PM
Sep 18
79 °FPassing clouds.8 mph61%29.83 "HgN/A
10:00 PM77 °FClear.No wind57%29.83 "Hg10 mi
9:00 PM79 °FPassing clouds.8 mph65%29.77 "HgN/A
8:00 PM79 °FPassing clouds.5 mph48%29.77 "HgN/A
7:00 PM82 °FPassing clouds.8 mph42%29.77 "HgN/A
6:00 PM84 °FPassing clouds.10 mph40%29.77 "HgN/A
5:00 PM84 °FPassing clouds.9 mph45%29.77 "HgN/A
4:00 PM82 °FPassing clouds.12 mph66%29.77 "HgN/A
3:00 PM82 °FPassing clouds.10 mph58%29.80 "HgN/A
2:00 PM82 °FPassing clouds.9 mph58%29.83 "HgN/A
12:00 PM82 °FPassing clouds.6 mph48%29.83 "HgN/A
Weather by CustomWeather, © 2014

See weather overviewHow to use our weather pages